AAL1890 KJFK-KMIA

Flight info

Callsign AAL1890
Flight time 2h 37m
Altitude 38000
Route WAVEY EMJAY Q167 KALDA Q101 SKARP Y313 HOAGG BNFSH3
Aircraft B738/M-SDE2E3FGHIRWXY/LB1

Departure

Time 2026-05-08 15:41
Airport John F. Kennedy International Airport (KJFK)

Arrival

Time 2026-05-08 18:19
Airport Miami International Airport (KMIA)
Time Latitude Longitude Altitude Speed Heading
2026-05-08 14:49 40.65004 -73.79406 23 ft 0 kts 150°
2026-05-08 15:22 40.65016 -73.79415 23 ft 4 kts 150°
2026-05-08 15:23 40.65036 -73.79430 26 ft 2 kts 151°
2026-05-08 15:23 40.65053 -73.79448 23 ft 4 kts 95°
2026-05-08 15:23 40.65046 -73.79476 25 ft 4 kts 60°
2026-05-08 15:23 40.65041 -73.79489 23 ft 0 kts 60°
2026-05-08 15:28 40.65047 -73.79475 23 ft 6 kts 60°
2026-05-08 15:28 40.65076 -73.79406 23 ft 9 kts 60°
2026-05-08 15:28 40.65107 -73.79335 23 ft 9 kts 60°
2026-05-08 15:28 40.65156 -73.79310 23 ft 8 kts 341°
2026-05-08 15:29 40.65206 -73.79345 24 ft 8 kts 331°
2026-05-08 15:29 40.65256 -73.79369 24 ft 8 kts 11°
2026-05-08 15:29 40.65286 -73.79306 22 ft 9 kts 81°
2026-05-08 15:29 40.65286 -73.79211 22 ft 11 kts 99°
2026-05-08 15:30 40.65266 -73.79117 22 ft 11 kts 107°
2026-05-08 15:30 40.65244 -73.79025 22 ft 11 kts 108°
2026-05-08 15:30 40.65219 -73.78910 24 ft 15 kts 100°
2026-05-08 15:30 40.65236 -73.78764 23 ft 17 kts 65°
2026-05-08 15:31 40.65291 -73.78630 29 ft 17 kts 60°
2026-05-08 15:31 40.65345 -73.78492 22 ft 14 kts 65°
2026-05-08 15:31 40.65359 -73.78381 23 ft 12 kts 116°
2026-05-08 15:31 40.65315 -73.78286 25 ft 12 kts 121°
2026-05-08 15:32 40.65273 -73.78194 26 ft 12 kts 121°
2026-05-08 15:32 40.65230 -73.78098 23 ft 13 kts 121°
2026-05-08 15:32 40.65179 -73.77985 21 ft 16 kts 121°
2026-05-08 15:32 40.65124 -73.77864 18 ft 15 kts 121°
2026-05-08 15:33 40.65069 -73.77744 17 ft 15 kts 121°
2026-05-08 15:33 40.65023 -73.77642 17 ft 10 kts 121°
2026-05-08 15:33 40.65005 -73.77603 19 ft 0 kts 121°
2026-05-08 15:34 40.65004 -73.77602 18 ft 1 kts 121°
2026-05-08 15:34 40.64985 -73.77559 20 ft 9 kts 121°
2026-05-08 15:34 40.64968 -73.77477 18 ft 10 kts 60°
2026-05-08 15:35 40.65024 -73.77435 19 ft 9 kts 18°
2026-05-08 15:35 40.65084 -73.77406 19 ft 9 kts 25°
2026-05-08 15:35 40.65134 -73.77359 19 ft 9 kts 56°
2026-05-08 15:35 40.65117 -73.77288 21 ft 9 kts 121°
2026-05-08 15:36 40.65083 -73.77212 21 ft 11 kts 121°
2026-05-08 15:36 40.65041 -73.77119 20 ft 12 kts 121°
2026-05-08 15:36 40.64999 -73.77027 21 ft 11 kts 121°
2026-05-08 15:36 40.64959 -73.76938 22 ft 11 kts 121°
2026-05-08 15:37 40.64920 -73.76852 22 ft 11 kts 121°
2026-05-08 15:37 40.64885 -73.76774 21 ft 9 kts 121°
2026-05-08 15:37 40.64868 -73.76711 21 ft 7 kts 72°
2026-05-08 15:37 40.64913 -73.76671 21 ft 9 kts 29°
2026-05-08 15:38 40.64974 -73.76624 20 ft 10 kts 31°
2026-05-08 15:38 40.65034 -73.76578 21 ft 9 kts 30°
2026-05-08 15:38 40.65078 -73.76545 21 ft 6 kts 30°
2026-05-08 15:38 40.65102 -73.76505 21 ft 6 kts 76°
2026-05-08 15:39 40.65088 -73.76449 21 ft 7 kts 119°
2026-05-08 15:39 40.65064 -73.76392 24 ft 7 kts 119°
2026-05-08 15:39 40.65033 -73.76351 21 ft 6 kts 181°
2026-05-08 15:39 40.65008 -73.76366 22 ft 0 kts 211°
2026-05-08 15:40 40.64990 -73.76381 23 ft 16 kts 211°
2026-05-08 15:41 40.64680 -73.76626 20 ft 88 kts 211°
2026-05-08 15:41 40.63960 -73.77187 21 ft 149 kts 210°
2026-05-08 15:41 40.62967 -73.77981 396 ft 169 kts 215°
2026-05-08 15:41 40.62006 -73.78727 1475 ft 154 kts 214°
2026-05-08 15:42 40.61050 -73.79408 2186 ft 164 kts 212°
2026-05-08 15:42 40.59969 -73.80133 2645 ft 181 kts 212°
2026-05-08 15:42 40.58883 -73.80914 3548 ft 172 kts 217°
2026-05-08 15:42 40.57817 -73.81602 4388 ft 179 kts 194°
2026-05-08 15:43 40.56575 -73.81328 5035 ft 189 kts 152°
2026-05-08 15:43 40.55707 -73.80056 5690 ft 190 kts 114°
2026-05-08 15:43 40.55271 -73.78437 6312 ft 193 kts 108°
2026-05-08 15:43 40.54846 -73.76634 6552 ft 219 kts 108°
2026-05-08 15:44 40.54389 -73.74656 6761 ft 239 kts 108°
2026-05-08 15:44 40.53888 -73.72474 6919 ft 259 kts 107°
2026-05-08 15:44 40.53351 -73.70120 7080 ft 279 kts 107°
2026-05-08 15:44 40.52774 -73.67597 7243 ft 297 kts 107°
2026-05-08 15:45 40.52170 -73.64946 7709 ft 307 kts 107°
2026-05-08 15:45 40.51545 -73.62235 8406 ft 312 kts 108°
2026-05-08 15:45 40.50544 -73.59728 9080 ft 312 kts 136°
2026-05-08 15:45 40.48856 -73.57978 9825 ft 308 kts 153°
2026-05-08 15:46 40.47005 -73.56547 10438 ft 312 kts 156°
2026-05-08 15:46 40.45063 -73.55143 10776 ft 329 kts 157°
2026-05-08 15:46 40.42982 -73.53658 10946 ft 351 kts 156°
2026-05-08 15:46 40.40779 -73.52074 11111 ft 371 kts 156°
2026-05-08 15:47 40.38464 -73.50390 11358 ft 388 kts 155°
2026-05-08 15:47 40.36084 -73.48644 11842 ft 395 kts 155°
2026-05-08 15:47 40.33695 -73.46886 12447 ft 400 kts 155°
2026-05-08 15:47 40.31256 -73.45091 13114 ft 404 kts 155°
2026-05-08 15:48 40.26296 -73.41451 14388 ft 413 kts 156°
2026-05-08 15:48 40.23778 -73.39607 15029 ft 417 kts 155°
2026-05-08 15:48 40.21318 -73.37536 15683 ft 424 kts 149°
2026-05-08 15:49 40.18919 -73.35243 16308 ft 429 kts 148°
2026-05-08 15:49 40.16502 -73.32922 16920 ft 433 kts 149°
2026-05-08 15:49 40.13998 -73.30736 17487 ft 431 kts 160°
2026-05-08 15:49 40.11179 -73.29664 18033 ft 415 kts 182°
2026-05-08 15:50 40.08357 -73.29846 18626 ft 401 kts 199°
2026-05-08 15:50 40.05725 -73.30886 19163 ft 391 kts 211°
2026-05-08 15:50 40.03421 -73.32665 19667 ft 381 kts 225°
2026-05-08 15:50 40.01391 -73.34888 20211 ft 381 kts 228°
2026-05-08 15:51 39.99392 -73.37179 20728 ft 383 kts 229°
2026-05-08 15:51 39.97389 -73.39482 21231 ft 386 kts 229°
2026-05-08 15:51 39.95357 -73.41797 21737 ft 389 kts 229°
2026-05-08 15:51 39.93308 -73.44106 22202 ft 391 kts 228°
2026-05-08 15:52 39.91240 -73.46418 22805 ft 390 kts 229°
2026-05-08 15:52 39.89209 -73.48680 23399 ft 390 kts 229°
2026-05-08 15:52 39.87114 -73.51013 23805 ft 393 kts 229°
2026-05-08 15:52 39.85054 -73.53307 24147 ft 396 kts 229°
2026-05-08 15:53 39.82955 -73.55641 24535 ft 397 kts 229°
2026-05-08 15:53 39.80848 -73.57983 24947 ft 398 kts 229°
2026-05-08 15:53 39.78735 -73.60327 25327 ft 400 kts 229°
2026-05-08 15:53 39.76612 -73.62683 25688 ft 402 kts 229°
2026-05-08 15:54 39.74471 -73.65057 26017 ft 404 kts 229°
2026-05-08 15:54 39.72321 -73.67439 26286 ft 407 kts 229°
2026-05-08 15:54 39.70161 -73.69833 26583 ft 410 kts 229°
2026-05-08 15:54 39.67989 -73.72235 26917 ft 411 kts 229°
2026-05-08 15:55 39.65834 -73.74615 27257 ft 413 kts 229°
2026-05-08 15:55 39.61438 -73.79466 27844 ft 416 kts 229°
2026-05-08 15:55 39.59230 -73.81901 28139 ft 418 kts 229°
2026-05-08 15:56 39.57007 -73.84349 28451 ft 419 kts 229°
2026-05-08 15:56 39.54785 -73.86794 28838 ft 419 kts 229°
2026-05-08 15:56 39.52569 -73.89227 29329 ft 416 kts 229°
2026-05-08 15:56 39.50370 -73.91642 29813 ft 413 kts 229°
2026-05-08 15:57 39.48175 -73.94052 30201 ft 412 kts 229°
2026-05-08 15:57 39.45993 -73.96446 30518 ft 412 kts 229°
2026-05-08 15:57 39.43811 -73.98838 30848 ft 411 kts 229°
2026-05-08 15:57 39.41628 -74.01227 31203 ft 410 kts 229°
2026-05-08 15:58 39.39451 -74.03610 31465 ft 411 kts 229°
2026-05-08 15:58 39.37267 -74.06003 31729 ft 411 kts 229°
2026-05-08 15:58 39.35114 -74.08358 32043 ft 409 kts 229°
2026-05-08 15:58 39.32943 -74.10730 32456 ft 407 kts 229°
2026-05-08 15:59 39.30784 -74.13087 32835 ft 405 kts 229°
2026-05-08 15:59 39.28632 -74.15438 33128 ft 404 kts 229°
2026-05-08 15:59 39.26480 -74.17788 33423 ft 404 kts 230°
2026-05-08 15:59 39.24339 -74.20122 33764 ft 402 kts 230°
2026-05-08 16:00 39.22205 -74.22447 34107 ft 401 kts 230°
2026-05-08 16:00 39.20071 -74.24769 34345 ft 400 kts 230°
2026-05-08 16:00 39.17960 -74.27067 34519 ft 401 kts 230°
2026-05-08 16:00 39.15831 -74.29382 34785 ft 398 kts 230°
2026-05-08 16:01 39.13727 -74.31668 35122 ft 395 kts 230°
2026-05-08 16:01 39.11623 -74.33950 35253 ft 397 kts 230°
2026-05-08 16:01 39.09499 -74.36255 35376 ft 399 kts 230°
2026-05-08 16:01 39.07374 -74.38558 35562 ft 400 kts 230°
2026-05-08 16:02 39.05245 -74.40862 35794 ft 399 kts 230°
2026-05-08 16:02 39.03120 -74.43160 36009 ft 399 kts 230°
2026-05-08 16:02 39.00997 -74.45454 36182 ft 399 kts 230°
2026-05-08 16:02 38.99587 -74.46978 36308 ft 400 kts 230°
2026-05-08 16:03 38.96771 -74.50018 36615 ft 397 kts 230°
2026-05-08 16:03 38.94653 -74.52297 36917 ft 395 kts 230°
2026-05-08 16:03 38.92575 -74.54592 37082 ft 393 kts 232°
2026-05-08 16:03 38.91229 -74.56154 37174 ft 393 kts 232°
2026-05-08 16:04 38.89219 -74.58533 37311 ft 394 kts 232°
2026-05-08 16:04 38.87204 -74.60929 37472 ft 394 kts 232°
2026-05-08 16:04 38.85185 -74.63317 37681 ft 393 kts 232°
2026-05-08 16:04 38.83166 -74.65689 37851 ft 394 kts 232°
2026-05-08 16:05 38.81140 -74.68061 38003 ft 394 kts 232°
2026-05-08 16:05 38.79106 -74.70435 37983 ft 396 kts 232°
2026-05-08 16:05 38.75038 -74.75160 38057 ft 393 kts 231°
2026-05-08 16:06 38.70865 -74.79595 38062 ft 391 kts 229°
2026-05-08 16:06 38.66638 -74.83942 38065 ft 388 kts 229°
2026-05-08 16:07 38.62455 -74.88274 38069 ft 385 kts 230°
2026-05-08 16:07 38.58295 -74.92601 38053 ft 385 kts 230°
2026-05-08 16:08 38.54152 -74.96905 38069 ft 385 kts 230°
2026-05-08 16:08 38.50060 -75.01314 38071 ft 383 kts 232°
2026-05-08 16:09 38.46034 -75.05771 38078 ft 389 kts 229°
2026-05-08 16:09 38.41671 -75.09964 38079 ft 394 kts 227°
2026-05-08 16:10 38.37252 -75.14119 38048 ft 394 kts 228°
2026-05-08 16:10 38.32838 -75.18283 38068 ft 395 kts 228°
2026-05-08 16:11 38.28423 -75.22464 38072 ft 396 kts 228°
2026-05-08 16:11 38.24004 -75.26650 38073 ft 396 kts 228°
2026-05-08 16:12 38.19584 -75.30830 38072 ft 395 kts 228°
2026-05-08 16:12 38.15183 -75.34986 38063 ft 394 kts 228°
2026-05-08 16:13 38.10816 -75.39108 38069 ft 393 kts 228°
2026-05-08 16:13 38.06419 -75.43246 38071 ft 393 kts 228°
2026-05-08 16:14 38.01951 -75.47291 38076 ft 396 kts 226°
2026-05-08 16:14 37.97387 -75.51197 38018 ft 395 kts 226°
2026-05-08 16:15 37.92860 -75.55099 38080 ft 393 kts 227°
2026-05-08 16:15 37.88370 -75.58987 38093 ft 393 kts 226°
2026-05-08 16:16 37.85896 -75.60641 38083 ft 414 kts 214°
2026-05-08 16:16 37.83082 -75.61694 38095 ft 429 kts 206°
2026-05-08 16:16 37.80065 -75.62224 38082 ft 449 kts 195°
2026-05-08 16:16 37.76885 -75.62021 38092 ft 463 kts 188°
2026-05-08 16:17 37.70455 -75.61200 38091 ft 460 kts 190°
2026-05-08 16:17 37.67351 -75.61183 38098 ft 441 kts 200°
2026-05-08 16:17 37.64379 -75.61757 38112 ft 430 kts 205°
2026-05-08 16:18 37.58504 -75.63113 38096 ft 429 kts 205°
2026-05-08 16:18 37.52618 -75.64443 38097 ft 429 kts 204°
2026-05-08 16:19 37.46730 -75.65727 38095 ft 429 kts 204°
2026-05-08 16:19 37.40840 -75.66995 38095 ft 429 kts 204°
2026-05-08 16:20 37.34940 -75.68263 38093 ft 429 kts 204°
2026-05-08 16:20 37.29046 -75.69527 38048 ft 429 kts 204°
2026-05-08 16:21 37.23211 -75.70777 38083 ft 428 kts 204°
2026-05-08 16:21 37.17330 -75.72036 38098 ft 428 kts 204°
2026-05-08 16:22 37.11446 -75.73296 38099 ft 429 kts 204°
2026-05-08 16:22 37.05707 -75.74865 38102 ft 409 kts 214°
2026-05-08 16:23 37.03143 -75.76240 38084 ft 392 kts 223°
2026-05-08 16:23 37.00808 -75.77896 38104 ft 390 kts 223°
2026-05-08 16:23 36.96065 -75.81241 38104 ft 392 kts 223°
2026-05-08 16:24 36.91291 -75.84570 38099 ft 393 kts 223°
2026-05-08 16:24 36.86522 -75.87876 38023 ft 395 kts 223°
2026-05-08 16:25 36.81724 -75.91194 38092 ft 394 kts 223°
2026-05-08 16:25 36.76922 -75.94510 38111 ft 394 kts 223°
2026-05-08 16:26 36.72113 -75.97825 38107 ft 395 kts 223°
2026-05-08 16:26 36.67300 -76.01138 38109 ft 395 kts 223°
2026-05-08 16:27 36.62490 -76.04442 38091 ft 394 kts 224°
2026-05-08 16:27 36.57693 -76.07735 38107 ft 393 kts 224°
2026-05-08 16:28 36.52899 -76.11024 38121 ft 392 kts 224°
2026-05-08 16:28 36.48149 -76.14277 38126 ft 392 kts 224°
2026-05-08 16:29 36.43369 -76.17544 38121 ft 391 kts 224°
2026-05-08 16:29 36.38610 -76.20790 38112 ft 388 kts 224°
2026-05-08 16:30 36.33881 -76.24016 38119 ft 387 kts 224°
2026-05-08 16:30 36.29185 -76.27215 38119 ft 387 kts 224°
2026-05-08 16:31 36.24460 -76.30427 38116 ft 387 kts 224°
2026-05-08 16:31 36.19731 -76.33639 38069 ft 387 kts 225°
2026-05-08 16:32 36.15049 -76.36815 38100 ft 387 kts 225°
2026-05-08 16:32 36.10321 -76.40019 38124 ft 387 kts 225°
2026-05-08 16:33 36.05578 -76.43226 38128 ft 388 kts 225°
2026-05-08 16:33 36.00833 -76.46430 38130 ft 389 kts 225°
2026-05-08 16:34 35.96113 -76.49613 38079 ft 388 kts 225°
2026-05-08 16:34 35.91376 -76.52802 38116 ft 387 kts 225°
2026-05-08 16:35 35.86599 -76.55933 38122 ft 391 kts 223°
2026-05-08 16:35 35.81700 -76.58926 38099 ft 392 kts 223°
2026-05-08 16:36 35.76840 -76.61880 38098 ft 392 kts 223°
2026-05-08 16:36 35.71961 -76.64865 38101 ft 390 kts 223°
2026-05-08 16:37 35.67105 -76.67846 38101 ft 390 kts 223°
2026-05-08 16:37 35.62253 -76.70826 38108 ft 389 kts 223°
2026-05-08 16:38 35.57425 -76.73784 38110 ft 389 kts 223°
2026-05-08 16:38 35.52575 -76.76751 38104 ft 389 kts 223°
2026-05-08 16:39 35.47726 -76.79715 38100 ft 388 kts 223°
2026-05-08 16:39 35.42884 -76.82670 38099 ft 389 kts 223°
2026-05-08 16:40 35.38035 -76.85628 38107 ft 390 kts 223°
2026-05-08 16:40 35.33196 -76.88574 38117 ft 390 kts 223°
2026-05-08 16:41 35.28321 -76.91537 38111 ft 391 kts 223°
2026-05-08 16:42 35.21014 -76.96006 38104 ft 390 kts 224°
2026-05-08 16:42 35.16187 -76.99038 38103 ft 390 kts 224°
2026-05-08 16:43 35.11382 -77.02057 38129 ft 390 kts 224°
2026-05-08 16:43 35.06548 -77.05083 38129 ft 390 kts 224°
2026-05-08 16:44 35.01721 -77.08096 38126 ft 389 kts 224°
2026-05-08 16:44 34.96886 -77.11107 38126 ft 389 kts 224°
2026-05-08 16:45 34.92061 -77.14113 38126 ft 389 kts 224°
2026-05-08 16:45 34.87239 -77.17113 38107 ft 389 kts 224°
2026-05-08 16:46 34.82430 -77.20100 38102 ft 390 kts 224°
2026-05-08 16:46 34.77600 -77.23094 38110 ft 389 kts 223°
2026-05-08 16:47 34.72775 -77.26083 38111 ft 390 kts 223°
2026-05-08 16:47 34.67933 -77.29080 38113 ft 390 kts 223°
2026-05-08 16:48 34.63090 -77.32069 38106 ft 390 kts 223°
2026-05-08 16:48 34.59061 -77.34553 38106 ft 391 kts 223°
2026-05-08 16:49 34.53429 -77.38027 38094 ft 390 kts 223°
2026-05-08 16:49 34.48403 -77.40805 38102 ft 408 kts 215°
2026-05-08 16:49 34.45638 -77.41678 38098 ft 427 kts 207°
2026-05-08 16:50 34.42690 -77.42257 38109 ft 429 kts 206°
2026-05-08 16:50 34.36784 -77.43361 38099 ft 429 kts 206°
2026-05-08 16:51 34.30872 -77.44487 38076 ft 428 kts 206°
2026-05-08 16:51 34.24996 -77.45622 38094 ft 427 kts 206°
2026-05-08 16:52 34.19127 -77.46763 38091 ft 427 kts 206°
2026-05-08 16:52 34.14240 -77.47718 38098 ft 427 kts 206°
2026-05-08 16:53 34.05476 -77.49429 38083 ft 425 kts 206°
2026-05-08 16:53 33.99631 -77.50568 38092 ft 425 kts 206°
2026-05-08 16:54 33.93780 -77.51705 38093 ft 426 kts 206°
2026-05-08 16:54 33.87919 -77.52844 38092 ft 427 kts 206°
2026-05-08 16:55 33.82032 -77.53983 38065 ft 428 kts 206°
2026-05-08 16:55 33.76160 -77.55118 38082 ft 428 kts 206°
2026-05-08 16:56 33.70262 -77.56257 38087 ft 429 kts 206°
2026-05-08 16:56 33.64353 -77.57397 38091 ft 430 kts 206°
2026-05-08 16:57 33.58469 -77.58536 38013 ft 430 kts 207°
2026-05-08 16:57 33.55611 -77.59330 38100 ft 415 kts 212°
2026-05-08 16:57 33.52844 -77.60288 38081 ft 413 kts 213°
2026-05-08 16:58 33.47338 -77.62295 38080 ft 413 kts 213°
2026-05-08 16:58 33.41824 -77.64284 38086 ft 414 kts 213°
2026-05-08 16:59 33.36286 -77.66237 38081 ft 415 kts 213°
2026-05-08 16:59 33.30741 -77.68171 38072 ft 414 kts 212°
2026-05-08 17:00 33.25243 -77.70085 38078 ft 415 kts 213°
2026-05-08 17:00 33.19699 -77.72015 38083 ft 415 kts 213°
2026-05-08 17:01 33.14148 -77.73945 38081 ft 415 kts 213°
2026-05-08 17:01 33.08599 -77.75869 38075 ft 415 kts 212°
2026-05-08 17:02 33.03095 -77.77777 38075 ft 414 kts 212°
2026-05-08 17:02 32.97555 -77.79696 38076 ft 414 kts 212°
2026-05-08 17:03 32.92016 -77.81615 38077 ft 416 kts 212°
2026-05-08 17:03 32.86449 -77.83538 38074 ft 417 kts 212°
2026-05-08 17:04 32.80863 -77.85464 38073 ft 418 kts 212°
2026-05-08 17:04 32.75269 -77.87390 38071 ft 418 kts 212°
2026-05-08 17:05 32.69672 -77.89315 38073 ft 419 kts 212°
2026-05-08 17:05 32.64054 -77.91218 38063 ft 421 kts 211°
2026-05-08 17:06 32.58438 -77.93034 38067 ft 421 kts 211°
2026-05-08 17:06 32.52780 -77.94850 38060 ft 420 kts 211°
2026-05-08 17:07 32.47131 -77.96670 38074 ft 420 kts 211°
2026-05-08 17:07 32.41489 -77.98493 38056 ft 420 kts 211°
2026-05-08 17:08 32.35841 -78.00311 38051 ft 419 kts 211°
2026-05-08 17:08 32.30221 -78.02126 38015 ft 418 kts 211°
2026-05-08 17:09 32.24647 -78.03925 38047 ft 418 kts 211°
2026-05-08 17:09 32.19038 -78.05729 38055 ft 418 kts 211°
2026-05-08 17:10 32.13425 -78.07540 38054 ft 418 kts 211°
2026-05-08 17:10 32.07791 -78.09346 38049 ft 419 kts 211°
2026-05-08 17:11 32.02162 -78.11143 38040 ft 419 kts 210°
2026-05-08 17:11 31.96517 -78.12949 38052 ft 420 kts 210°
2026-05-08 17:12 31.90872 -78.14758 38055 ft 421 kts 210°
2026-05-08 17:12 31.85203 -78.16573 38056 ft 423 kts 210°
2026-05-08 17:13 31.79553 -78.18368 38045 ft 423 kts 210°
2026-05-08 17:13 31.73877 -78.20173 38044 ft 423 kts 210°
2026-05-08 17:14 31.68184 -78.21985 38049 ft 424 kts 210°
2026-05-08 17:14 31.62470 -78.23798 38051 ft 425 kts 210°
2026-05-08 17:15 31.56752 -78.25615 38047 ft 426 kts 210°
2026-05-08 17:15 31.51052 -78.27418 38002 ft 426 kts 209°
2026-05-08 17:16 31.45340 -78.29234 38033 ft 425 kts 210°
2026-05-08 17:16 31.39642 -78.31137 38044 ft 425 kts 210°
2026-05-08 17:17 31.33946 -78.33061 38044 ft 426 kts 210°
2026-05-08 17:17 31.28234 -78.34981 38041 ft 427 kts 210°
2026-05-08 17:18 31.22510 -78.36893 38041 ft 427 kts 209°
2026-05-08 17:18 31.16815 -78.38794 38042 ft 428 kts 209°
2026-05-08 17:19 31.11083 -78.40703 38040 ft 429 kts 209°
2026-05-08 17:19 31.05338 -78.42612 38036 ft 429 kts 209°
2026-05-08 17:20 30.99577 -78.44520 38001 ft 430 kts 209°
2026-05-08 17:20 30.93821 -78.46436 38026 ft 430 kts 209°
2026-05-08 17:21 30.88053 -78.48351 38040 ft 431 kts 209°
2026-05-08 17:21 30.82310 -78.50254 38036 ft 432 kts 208°
2026-05-08 17:22 30.76518 -78.52166 38032 ft 432 kts 208°
2026-05-08 17:22 30.70744 -78.54120 38028 ft 430 kts 208°
2026-05-08 17:23 30.64970 -78.56007 38030 ft 431 kts 208°
2026-05-08 17:23 30.59184 -78.57893 38036 ft 433 kts 208°
2026-05-08 17:24 30.53414 -78.59786 38041 ft 434 kts 208°
2026-05-08 17:24 30.47591 -78.61699 38040 ft 436 kts 208°
2026-05-08 17:25 30.41747 -78.63617 38038 ft 436 kts 208°
2026-05-08 17:25 30.35893 -78.65537 38037 ft 437 kts 208°
2026-05-08 17:26 30.30074 -78.67438 38033 ft 437 kts 208°
2026-05-08 17:26 30.24194 -78.69366 38036 ft 438 kts 208°
2026-05-08 17:27 30.18326 -78.71281 38039 ft 437 kts 208°
2026-05-08 17:27 30.12512 -78.73181 38026 ft 437 kts 208°
2026-05-08 17:28 30.06663 -78.75091 38035 ft 435 kts 208°
2026-05-08 17:28 30.00840 -78.76992 38035 ft 433 kts 208°
2026-05-08 17:29 29.95037 -78.78887 38037 ft 432 kts 208°
2026-05-08 17:29 29.89248 -78.80771 38014 ft 431 kts 207°
2026-05-08 17:30 29.83507 -78.82639 38029 ft 431 kts 207°
2026-05-08 17:30 29.77722 -78.84519 38038 ft 431 kts 207°
2026-05-08 17:31 29.71937 -78.86414 38052 ft 436 kts 207°
2026-05-08 17:31 29.66091 -78.88335 38034 ft 436 kts 207°
2026-05-08 17:32 29.60273 -78.90257 38030 ft 432 kts 207°
2026-05-08 17:32 29.54510 -78.92186 38030 ft 430 kts 207°
2026-05-08 17:33 29.48809 -78.94101 38034 ft 429 kts 207°
2026-05-08 17:33 29.43074 -78.96029 38034 ft 429 kts 207°
2026-05-08 17:34 29.40125 -78.96811 38018 ft 443 kts 197°
2026-05-08 17:34 29.37011 -78.97061 38052 ft 450 kts 194°
2026-05-08 17:34 29.30729 -78.97362 38027 ft 453 kts 193°
2026-05-08 17:35 29.24411 -78.97689 38030 ft 454 kts 193°
2026-05-08 17:35 29.18120 -78.98076 38032 ft 456 kts 193°
2026-05-08 17:36 29.11739 -78.98496 38028 ft 458 kts 193°
2026-05-08 17:36 29.05356 -78.98915 38012 ft 460 kts 193°
2026-05-08 17:37 28.98999 -78.99328 38022 ft 461 kts 193°
2026-05-08 17:37 28.92581 -78.99742 38028 ft 462 kts 193°
2026-05-08 17:38 28.86155 -79.00159 38028 ft 462 kts 193°
2026-05-08 17:38 28.79761 -79.00572 37998 ft 462 kts 193°
2026-05-08 17:39 28.73360 -79.00982 38016 ft 460 kts 192°
2026-05-08 17:39 28.66970 -79.01393 38025 ft 458 kts 192°
2026-05-08 17:40 28.61676 -79.01736 38031 ft 458 kts 192°
2026-05-08 17:40 28.55316 -79.02146 38025 ft 457 kts 192°
2026-05-08 17:41 28.48957 -79.02555 38017 ft 457 kts 192°
2026-05-08 17:41 28.42617 -79.02962 38024 ft 457 kts 192°
2026-05-08 17:42 28.36271 -79.03367 38029 ft 456 kts 192°
2026-05-08 17:42 28.33145 -79.03764 38011 ft 445 kts 203°
2026-05-08 17:42 28.30212 -79.04770 38050 ft 438 kts 207°
2026-05-08 17:43 28.24449 -79.07031 38042 ft 438 kts 207°
2026-05-08 17:43 28.18674 -79.09288 38031 ft 439 kts 206°
2026-05-08 17:44 28.12858 -79.11489 38030 ft 441 kts 206°
2026-05-08 17:44 28.07056 -79.13651 38034 ft 442 kts 206°
2026-05-08 17:45 28.01185 -79.15831 38037 ft 443 kts 206°
2026-05-08 17:45 27.95314 -79.18009 38036 ft 444 kts 206°
2026-05-08 17:46 27.89416 -79.20195 38029 ft 445 kts 205°
2026-05-08 17:46 27.83525 -79.22378 38040 ft 446 kts 205°
2026-05-08 17:47 27.77666 -79.24544 38031 ft 446 kts 205°
2026-05-08 17:47 27.74699 -79.25642 37764 ft 449 kts 205°
2026-05-08 17:47 27.72694 -79.26383 37605 ft 448 kts 205°
2026-05-08 17:48 27.68781 -79.27827 37264 ft 443 kts 205°
2026-05-08 17:48 27.65849 -79.28907 37012 ft 443 kts 205°
2026-05-08 17:48 27.62921 -79.29987 36742 ft 443 kts 205°
2026-05-08 17:48 27.59985 -79.31071 36495 ft 443 kts 205°
2026-05-08 17:49 27.57056 -79.32151 36257 ft 443 kts 205°
2026-05-08 17:49 27.54122 -79.33232 36017 ft 444 kts 205°
2026-05-08 17:49 27.51220 -79.34300 35785 ft 444 kts 205°
2026-05-08 17:49 27.48276 -79.35382 35224 ft 445 kts 204°
2026-05-08 17:50 27.45329 -79.36466 34626 ft 445 kts 204°
2026-05-08 17:50 27.42377 -79.37551 33943 ft 447 kts 204°
2026-05-08 17:50 27.39416 -79.38640 33182 ft 448 kts 204°
2026-05-08 17:50 27.36457 -79.39725 32660 ft 445 kts 204°
2026-05-08 17:51 27.33530 -79.40797 32147 ft 441 kts 204°
2026-05-08 17:51 27.30617 -79.41864 31655 ft 437 kts 204°
2026-05-08 17:51 27.27741 -79.42917 31181 ft 433 kts 204°
2026-05-08 17:51 27.24885 -79.43962 30704 ft 430 kts 204°
2026-05-08 17:52 27.22047 -79.45000 30218 ft 427 kts 204°
2026-05-08 17:52 27.19228 -79.46032 29664 ft 424 kts 204°
2026-05-08 17:52 27.13664 -79.48065 28622 ft 416 kts 204°
2026-05-08 17:53 27.10959 -79.49054 28135 ft 412 kts 204°
2026-05-08 17:53 27.08202 -79.50061 27647 ft 410 kts 204°
2026-05-08 17:53 27.05530 -79.51036 27158 ft 408 kts 203°
2026-05-08 17:53 27.02842 -79.52017 26687 ft 405 kts 203°
2026-05-08 17:54 27.00161 -79.52994 26218 ft 404 kts 203°
2026-05-08 17:54 26.97496 -79.53964 25749 ft 402 kts 203°
2026-05-08 17:54 26.94837 -79.54933 25274 ft 402 kts 203°
2026-05-08 17:54 26.92175 -79.55904 24787 ft 402 kts 203°
2026-05-08 17:55 26.89512 -79.56872 24320 ft 400 kts 202°
2026-05-08 17:55 26.86887 -79.57821 24179 ft 392 kts 202°
2026-05-08 17:55 26.84328 -79.58740 24080 ft 380 kts 202°
2026-05-08 17:55 26.81853 -79.59628 24048 ft 366 kts 203°
2026-05-08 17:56 26.79474 -79.60482 23990 ft 353 kts 203°
2026-05-08 17:56 26.77152 -79.61322 23400 ft 358 kts 202°
2026-05-08 17:56 26.74743 -79.62197 22453 ft 372 kts 202°
2026-05-08 17:56 26.72248 -79.63102 21535 ft 380 kts 202°
2026-05-08 17:57 26.69720 -79.64012 20822 ft 381 kts 202°
2026-05-08 17:57 26.67210 -79.64912 20223 ft 376 kts 201°
2026-05-08 17:57 26.64731 -79.65801 19657 ft 372 kts 201°
2026-05-08 17:57 26.62284 -79.66679 19172 ft 367 kts 201°
2026-05-08 17:58 26.59857 -79.67537 18710 ft 365 kts 201°
2026-05-08 17:58 26.57430 -79.68386 18247 ft 366 kts 201°
2026-05-08 17:58 26.54992 -79.69236 17753 ft 368 kts 201°
2026-05-08 17:58 26.52547 -79.70091 17286 ft 368 kts 201°
2026-05-08 17:59 26.50097 -79.70947 16826 ft 368 kts 200°
2026-05-08 17:59 26.47660 -79.71801 16332 ft 365 kts 201°
2026-05-08 17:59 26.45418 -79.73039 15932 ft 356 kts 220°
2026-05-08 17:59 26.43653 -79.74896 15744 ft 344 kts 230°
2026-05-08 18:00 26.42069 -79.76880 15498 ft 340 kts 230°
2026-05-08 18:00 26.38916 -79.80804 15048 ft 340 kts 229°
2026-05-08 18:00 26.37439 -79.82794 14815 ft 333 kts 236°
2026-05-08 18:01 26.36148 -79.84914 14597 ft 324 kts 238°
2026-05-08 18:01 26.34918 -79.86969 14388 ft 313 kts 237°
2026-05-08 18:01 26.33713 -79.88938 14171 ft 303 kts 237°
2026-05-08 18:01 26.32520 -79.90861 13988 ft 301 kts 236°
2026-05-08 18:02 26.31326 -79.92776 13790 ft 300 kts 236°
2026-05-08 18:02 26.30536 -79.94039 13643 ft 298 kts 236°
2026-05-08 18:02 26.28964 -79.96548 13359 ft 297 kts 236°
2026-05-08 18:02 26.27785 -79.98428 13159 ft 295 kts 236°
2026-05-08 18:03 26.26604 -80.00308 12959 ft 294 kts 235°
2026-05-08 18:03 26.25146 -80.01886 12750 ft 296 kts 211°
2026-05-08 18:03 26.23252 -80.02757 12579 ft 297 kts 196°
2026-05-08 18:03 26.21225 -80.03243 12389 ft 297 kts 192°
2026-05-08 18:04 26.19191 -80.03672 12190 ft 298 kts 192°
2026-05-08 18:04 26.17152 -80.04103 12007 ft 298 kts 192°
2026-05-08 18:04 26.15140 -80.04540 11806 ft 298 kts 192°
2026-05-08 18:04 26.13081 -80.05000 11598 ft 298 kts 192°
2026-05-08 18:05 26.11083 -80.05453 11412 ft 296 kts 192°
2026-05-08 18:05 26.09082 -80.05908 11211 ft 291 kts 192°
2026-05-08 18:05 26.07104 -80.06359 11021 ft 289 kts 192°
2026-05-08 18:05 26.05131 -80.06847 10781 ft 292 kts 193°
2026-05-08 18:06 26.03155 -80.07366 10541 ft 291 kts 193°
2026-05-08 18:06 26.01187 -80.07886 10301 ft 289 kts 193°
2026-05-08 18:06 25.99229 -80.08399 10063 ft 288 kts 193°
2026-05-08 18:06 25.97295 -80.08903 9807 ft 286 kts 193°
2026-05-08 18:07 25.95368 -80.09404 9549 ft 281 kts 193°
2026-05-08 18:07 25.93493 -80.09894 9303 ft 273 kts 195°
2026-05-08 18:07 25.91816 -80.10823 9068 ft 271 kts 218°
2026-05-08 18:07 25.90503 -80.12291 8865 ft 272 kts 227°
2026-05-08 18:08 25.89241 -80.13868 8644 ft 274 kts 227°
2026-05-08 18:08 25.88169 -80.15617 8384 ft 278 kts 249°
2026-05-08 18:08 25.87805 -80.17725 8184 ft 279 kts 264°
2026-05-08 18:08 25.87737 -80.19889 7900 ft 283 kts 268°
2026-05-08 18:09 25.87716 -80.22074 7567 ft 283 kts 268°
2026-05-08 18:09 25.87676 -80.24266 7239 ft 283 kts 267°
2026-05-08 18:09 25.87618 -80.26454 6914 ft 282 kts 268°
2026-05-08 18:09 25.87551 -80.28595 6589 ft 279 kts 268°
2026-05-08 18:10 25.87485 -80.30727 6249 ft 273 kts 268°
2026-05-08 18:10 25.87419 -80.32822 5911 ft 267 kts 268°
2026-05-08 18:10 25.87353 -80.34876 5469 ft 266 kts 268°
2026-05-08 18:10 25.87285 -80.36922 5060 ft 264 kts 268°
2026-05-08 18:11 25.87217 -80.38955 4657 ft 262 kts 268°
2026-05-08 18:11 25.87125 -80.40969 4233 ft 261 kts 268°
2026-05-08 18:11 25.87039 -80.42973 3818 ft 259 kts 268°
2026-05-08 18:11 25.86961 -80.44959 3409 ft 257 kts 268°
2026-05-08 18:12 25.86881 -80.46922 3065 ft 256 kts 268°
2026-05-08 18:12 25.86808 -80.48839 3000 ft 241 kts 268°
2026-05-08 18:12 25.86743 -80.50620 3007 ft 221 kts 268°
2026-05-08 18:12 25.86590 -80.52227 2973 ft 199 kts 249°
2026-05-08 18:13 25.85699 -80.53311 3013 ft 196 kts 202°
2026-05-08 18:13 25.84364 -80.53409 3020 ft 194 kts 169°
2026-05-08 18:13 25.83070 -80.52985 2998 ft 194 kts 156°
2026-05-08 18:13 25.81910 -80.52229 2987 ft 194 kts 140°
2026-05-08 18:14 25.81009 -80.51128 2988 ft 193 kts 123°
2026-05-08 18:14 25.80396 -80.49823 2992 ft 189 kts 110°
2026-05-08 18:14 25.80014 -80.48456 2973 ft 185 kts 105°
2026-05-08 18:14 25.79734 -80.47078 2852 ft 180 kts 98°
2026-05-08 18:15 25.79615 -80.45714 2643 ft 175 kts 94°
2026-05-08 18:15 25.79547 -80.44390 2428 ft 167 kts 91°
2026-05-08 18:15 25.79556 -80.43138 2213 ft 158 kts 87°
2026-05-08 18:15 25.79594 -80.41964 2049 ft 148 kts 88°
2026-05-08 18:16 25.79634 -80.40834 1865 ft 146 kts 88°
2026-05-08 18:16 25.79681 -80.39691 1656 ft 151 kts 87°
2026-05-08 18:16 25.79731 -80.38515 1460 ft 153 kts 88°
2026-05-08 18:16 25.79777 -80.37352 1250 ft 149 kts 88°
2026-05-08 18:17 25.79822 -80.36227 1075 ft 144 kts 88°
2026-05-08 18:17 25.79867 -80.35116 895 ft 147 kts 88°
2026-05-08 18:17 25.79912 -80.34000 740 ft 143 kts 88°
2026-05-08 18:17 25.79953 -80.32914 577 ft 140 kts 88°
2026-05-08 18:18 25.80001 -80.31810 426 ft 144 kts 87°
2026-05-08 18:18 25.80068 -80.30705 167 ft 142 kts 90°
2026-05-08 18:18 25.80095 -80.29608 21 ft 138 kts 88°
2026-05-08 18:18 25.80131 -80.28665 16 ft 103 kts 87°
2026-05-08 18:19 25.80157 -80.28051 13 ft 60 kts 87°
2026-05-08 18:19 25.80169 -80.27728 13 ft 34 kts 88°
2026-05-08 18:19 25.80158 -80.27545 16 ft 15 kts 127°
2026-05-08 18:19 25.80075 -80.27503 14 ft 13 kts 167°
2026-05-08 18:20 25.80003 -80.27504 14 ft 10 kts 204°
2026-05-08 18:20 25.79944 -80.27534 14 ft 9 kts 192°
2026-05-08 18:20 25.79886 -80.27536 14 ft 8 kts 178°
2026-05-08 18:20 25.79831 -80.27533 14 ft 8 kts 177°
2026-05-08 18:21 25.79795 -80.27532 14 ft 2 kts 177°
2026-05-08 18:21 25.79786 -80.27531 14 ft 0 kts 177°